Tracking 30923 objects as of 1-Jul-2025
HD Live streaming from Space Station
objects crossing your sky now

NOAA 17 DEB

Track NOAA 17 DEB now!
10-day predictions


NORAD ID: 48167
Int'l Code: 2002-032H
Perigee: 682.2 km
Apogee: 724.3 km
Inclination: 98.7 °
Period: 98.7 minutes
Semi major axis: 7074 km
RCS: Unknown
Launch date: June 24, 2002
Source: United States (US)
Launch site: AIR FORCE WESTERN TEST RANGE (AFWTR)

Note: This is SATELLITE DEBRIS
Your satellite tracking list
Your tracking list is empty




NASA's NSSDC Master Catalog

Two Line Element Set (TLE):
1 48167U 02032H   25181.79247160  .00008124  00000-0  17256-2 0  9994
2 48167  98.7130 164.2384 0029744  98.4895 261.9676 14.59094218225158
Source of the keplerian elements: AFSPC